Volver al catálogo

KUIPER-00199

ActivoComunicacionesVLEO
NORAD 67771·PAYLOAD·🇺🇸 United States

Lanzado Feb 12, 2026 desde Guiana Space Centre

Loading…

Próximos Pases (próximas 24 horas)

TLE

ActualizadoSource: CelesTrak SupGP

Época: Sep 14, 2026, 22:13 UTC

1 67771C 26030H   26257.92577546 -.01275600  00000+0 -54233-1 0  2573
2 67771  51.8848  26.4675 0011143  11.7201 319.2486 15.23696621    11

Sigue KUIPER-00199 en tiempo real con AllMySat

Download on the App Store